EZY35MF EGKK-LEMD

Flight info

Callsign EZY35MF
Flight time N/A
Altitude 31000
Route NOVMA DCT HAZEL L620 SAM M195 MARUK N621 LELNA/N0439F330 DCT NOVAN DCT DELOG N864 NONTU
Aircraft A21N/M-SDE2E3FGHIJ1RWXYZ/LB1G1

Departure

Time 2026-04-15 09:53
Airport London Gatwick Airport (EGKK)

Arrival

Time N/A
Airport Adolfo Suárez Madrid–Barajas Airport (LEMD)
Time Latitude Longitude Altitude Speed Heading
2026-04-15 09:15 51.15656 -0.17604 216 ft 0 kts 167°
2026-04-15 09:42 51.15660 -0.17606 209 ft 3 kts 167°
2026-04-15 09:43 51.15686 -0.17615 212 ft 4 kts 167°
2026-04-15 09:43 51.15704 -0.17621 215 ft 4 kts 167°
2026-04-15 09:43 51.15729 -0.17632 215 ft 4 kts 144°
2026-04-15 09:43 51.15740 -0.17660 211 ft 4 kts 83°
2026-04-15 09:44 51.15736 -0.17692 213 ft 4 kts 77°
2026-04-15 09:44 51.15734 -0.17704 215 ft 0 kts 77°
2026-04-15 09:48 51.15735 -0.17698 214 ft 2 kts 77°
2026-04-15 09:49 51.15739 -0.17668 212 ft 4 kts 78°
2026-04-15 09:49 51.15746 -0.17614 209 ft 6 kts 78°
2026-04-15 09:49 51.15750 -0.17534 213 ft 8 kts 109°
2026-04-15 09:49 51.15691 -0.17486 215 ft 11 kts 169°
2026-04-15 09:50 51.15613 -0.17460 209 ft 13 kts 167°
2026-04-15 09:50 51.15518 -0.17428 215 ft 15 kts 168°
2026-04-15 09:50 51.15409 -0.17390 209 ft 17 kts 168°
2026-04-15 09:50 51.15290 -0.17350 211 ft 16 kts 166°
2026-04-15 09:51 51.15201 -0.17265 212 ft 10 kts 142°
2026-04-15 09:51 51.15185 -0.17159 214 ft 12 kts 76°
2026-04-15 09:51 51.15203 -0.17024 213 ft 13 kts 80°
2026-04-15 09:51 51.15221 -0.16867 213 ft 15 kts 82°
2026-04-15 09:52 51.15166 -0.16786 214 ft 11 kts 178°
2026-04-15 09:52 51.15114 -0.16857 216 ft 9 kts 259°
2026-04-15 09:52 51.15113 -0.16862 215 ft 0 kts 258°
2026-04-15 09:52 51.15101 -0.16952 208 ft 35 kts 258°
2026-04-15 09:53 51.14983 -0.17804 216 ft 108 kts 257°
2026-04-15 09:53 51.14792 -0.19146 217 ft 156 kts 252°
2026-04-15 09:53 51.14666 -0.20049 482 ft 153 kts 254°
2026-04-15 09:53 51.14398 -0.22076 1098 ft 160 kts 255°
2026-04-15 09:54 51.14143 -0.23997 1602 ft 177 kts 252°
2026-04-15 09:54 51.13820 -0.26203 2215 ft 199 kts 253°
2026-04-15 09:54 51.13518 -0.28377 2622 ft 225 kts 254°
2026-04-15 09:54 51.13175 -0.30859 3202 ft 243 kts 254°
2026-04-15 09:55 51.12797 -0.33592 4013 ft 248 kts 253°
2026-04-15 09:55 51.12435 -0.36213 4959 ft 251 kts 253°
2026-04-15 09:55 51.12054 -0.38962 5889 ft 254 kts 253°
2026-04-15 09:55 51.11665 -0.41741 6786 ft 258 kts 252°
2026-04-15 09:56 51.11067 -0.44421 7641 ft 257 kts 241°
2026-04-15 09:56 51.10267 -0.46996 8554 ft 261 kts 239°
2026-04-15 09:56 51.08553 -0.52424 10449 ft 267 kts 240°
2026-04-15 09:57 51.07678 -0.55209 11369 ft 270 kts 240°
2026-04-15 09:57 51.06868 -0.57797 12203 ft 272 kts 240°
2026-04-15 09:57 51.06048 -0.60412 13059 ft 276 kts 240°
2026-04-15 09:57 51.05291 -0.63238 13939 ft 281 kts 249°
2026-04-15 09:58 51.04816 -0.66422 14739 ft 285 kts 253°
2026-04-15 09:58 51.04433 -0.69390 15470 ft 288 kts 253°
2026-04-15 09:58 51.04009 -0.72657 16248 ft 292 kts 253°
2026-04-15 09:58 51.03587 -0.75850 17001 ft 295 kts 253°
2026-04-15 09:59 51.03154 -0.79086 17454 ft 310 kts 253°
2026-04-15 09:59 51.02680 -0.82577 17747 ft 328 kts 253°
2026-04-15 09:59 51.02182 -0.86254 18251 ft 338 kts 253°
2026-04-15 09:59 51.01692 -0.89877 18826 ft 343 kts 253°
2026-04-15 10:00 51.01190 -0.93570 19433 ft 346 kts 253°
2026-04-15 10:00 51.00677 -0.97330 20115 ft 347 kts 253°
2026-04-15 10:00 51.00167 -1.01062 20747 ft 349 kts 252°
2026-04-15 10:00 50.99648 -1.04839 21331 ft 352 kts 252°
2026-04-15 10:01 50.99112 -1.08722 21915 ft 355 kts 252°
2026-04-15 10:01 50.98587 -1.12502 22467 ft 358 kts 252°
2026-04-15 10:01 50.98045 -1.16370 23008 ft 362 kts 252°
2026-04-15 10:01 50.97520 -1.20172 23520 ft 365 kts 252°
2026-04-15 10:02 50.96958 -1.24233 24014 ft 368 kts 252°
2026-04-15 10:02 50.96398 -1.28206 24481 ft 369 kts 250°
2026-04-15 10:02 50.95557 -1.32025 24944 ft 364 kts 239°
2026-04-15 10:02 50.94099 -1.35495 25413 ft 360 kts 225°
2026-04-15 10:03 50.92329 -1.37992 25843 ft 359 kts 214°
2026-04-15 10:03 50.90247 -1.40179 26299 ft 360 kts 212°
2026-04-15 10:03 50.88130 -1.42313 26785 ft 361 kts 211°
2026-04-15 10:03 50.86012 -1.44470 27207 ft 363 kts 212°
2026-04-15 10:04 50.83891 -1.46651 27628 ft 364 kts 212°
2026-04-15 10:04 50.81764 -1.48848 28036 ft 366 kts 212°
2026-04-15 10:04 50.79628 -1.51061 28428 ft 368 kts 212°
2026-04-15 10:04 50.77483 -1.53282 28816 ft 370 kts 212°
2026-04-15 10:05 50.75326 -1.55512 29197 ft 371 kts 212°
2026-04-15 10:05 50.73159 -1.57750 29557 ft 373 kts 212°
2026-04-15 10:05 50.70983 -1.59996 29935 ft 375 kts 212°
2026-04-15 10:05 50.68797 -1.62248 30263 ft 376 kts 212°
2026-04-15 10:06 50.66598 -1.64512 30557 ft 378 kts 212°
2026-04-15 10:06 50.64393 -1.66782 30853 ft 380 kts 212°
2026-04-15 10:06 50.62176 -1.69061 31128 ft 382 kts 213°
2026-04-15 10:06 50.59947 -1.71347 31430 ft 383 kts 213°
2026-04-15 10:07 50.57722 -1.73628 31827 ft 381 kts 213°
2026-04-15 10:07 50.56250 -1.75134 32077 ft 380 kts 213°
2026-04-15 10:07 50.53294 -1.78159 32579 ft 379 kts 213°
2026-04-15 10:07 50.51087 -1.80415 32938 ft 378 kts 213°
2026-04-15 10:08 50.48889 -1.82656 33281 ft 377 kts 213°
2026-04-15 10:08 50.46690 -1.84896 33628 ft 376 kts 213°
2026-04-15 10:08 50.44474 -1.87152 33921 ft 376 kts 212°
2026-04-15 10:08 50.42297 -1.89366 34160 ft 377 kts 213°
2026-04-15 10:09 50.40099 -1.91601 34383 ft 377 kts 213°
2026-04-15 10:09 50.38612 -1.93110 34553 ft 376 kts 213°
2026-04-15 10:09 50.36384 -1.95368 34793 ft 376 kts 213°
2026-04-15 10:09 50.34193 -1.97586 35005 ft 376 kts 213°
2026-04-15 10:10 50.31986 -1.99817 35094 ft 379 kts 213°
2026-04-15 10:10 50.27554 -2.04296 35078 ft 379 kts 212°
2026-04-15 10:11 50.22701 -2.07473 35064 ft 383 kts 194°
2026-04-15 10:11 50.17365 -2.08294 35054 ft 386 kts 188°
2026-04-15 10:12 50.11969 -2.08923 35063 ft 386 kts 188°
2026-04-15 10:12 50.06614 -2.09603 35066 ft 386 kts 188°
2026-04-15 10:13 50.01245 -2.10294 35072 ft 385 kts 188°
2026-04-15 10:13 49.96009 -2.11666 35076 ft 380 kts 199°
2026-04-15 10:14 49.90953 -2.14068 35069 ft 380 kts 199°
2026-04-15 10:14 49.85852 -2.16468 35080 ft 380 kts 199°
2026-04-15 10:15 49.80910 -2.18770 35081 ft 380 kts 199°
2026-04-15 10:15 49.75841 -2.21126 35082 ft 380 kts 199°
2026-04-15 10:16 49.70770 -2.23479 35064 ft 381 kts 199°
2026-04-15 10:16 49.65651 -2.25850 35115 ft 382 kts 199°
2026-04-15 10:17 49.60563 -2.28202 35092 ft 382 kts 199°
2026-04-15 10:17 49.55433 -2.30568 35085 ft 382 kts 199°
2026-04-15 10:18 49.50350 -2.32903 35084 ft 382 kts 199°
2026-04-15 10:18 49.45250 -2.35246 35076 ft 381 kts 199°
2026-04-15 10:19 49.40135 -2.37591 35088 ft 382 kts 199°
2026-04-15 10:19 49.35044 -2.39913 35086 ft 382 kts 199°
2026-04-15 10:20 49.29942 -2.42240 35082 ft 381 kts 199°
2026-04-15 10:20 49.24870 -2.44550 35078 ft 381 kts 199°
2026-04-15 10:21 49.19783 -2.46857 35101 ft 381 kts 199°
2026-04-15 10:21 49.14659 -2.49183 35101 ft 381 kts 199°
2026-04-15 10:22 49.09578 -2.51481 35101 ft 381 kts 199°
2026-04-15 10:22 49.04479 -2.53778 35078 ft 381 kts 200°
2026-04-15 10:23 48.99409 -2.56059 35095 ft 380 kts 200°
2026-04-15 10:23 48.94303 -2.58355 35094 ft 380 kts 200°
2026-04-15 10:24 48.89222 -2.60635 35094 ft 380 kts 200°
2026-04-15 10:24 48.84115 -2.62921 35133 ft 380 kts 200°
2026-04-15 10:25 48.79024 -2.65193 35100 ft 378 kts 200°
2026-04-15 10:25 48.74009 -2.67427 35092 ft 378 kts 200°
2026-04-15 10:26 48.68967 -2.69666 35097 ft 378 kts 200°
2026-04-15 10:26 48.65586 -2.71165 35097 ft 378 kts 200°